This demonstration page uses our WeatherBlox Daily Observations layout. Learn more.

Left ArrowRight Arrow

30.21309, -93.2044

Hourly Observations for June 8, 2019

Temp ( °F °C ) Dew Point ( °F °C ) Humidity (%) Winds ( mph kmh ) Pressure ( in mb ) Visibility ( mi km ) Precip ( " mm )
12:15 am 00:15 Cloudy 77 25 74 23.2 90 90 Calm 29.73 1007 10 16 0.00 0.00
12:35 am 00:35 Mostly Cloudy 77 25.2 73 22.6 86 86 Calm 29.73 1007 10 16 0.00 0.00
12:55 am 00:55 Mostly Cloudy 77 25.2 73 22.9 87 87 N 5 7 29.73 1007 10 16 0.00 0.00
1:15 am 01:15 Mostly Cloudy 78 25.5 73 22.8 85 85 NNW 5 7 29.73 1007 10 16 0.00 0.00
1:35 am 01:35 Partly Cloudy 77 25 73 22.7 87 87 Calm 29.73 1007 10 16 0.00 0.00
1:55 am 01:55 Clear 76 24.6 73 22.7 89 89 Calm 29.73 1007 10 16 0.00 0.00
2:15 am 02:15 Clear 74 23.2 72 22.2 94 94 Calm 29.73 1007 10 16 0.00 0.00
2:35 am 02:35 Clear 74 23.4 73 22.6 95 95 Calm 29.73 1007 10 16 0.00 0.00
2:55 am 02:55 Clear 75 23.8 73 22.6 93 93 Calm 29.73 1007 10 16 0.00 0.00
3:15 am 03:15 Partly Cloudy 75 23.8 73 22.5 92 92 Calm 29.72 1006 10 16 0.00 0.00
3:35 am 03:35 Partly Cloudy 75 23.9 72 22.1 90 90 Calm 29.72 1006 10 16 0.00 0.00
3:55 am 03:55 Partly Cloudy 74 23.6 72 22.1 91 91 Calm 29.72 1006 7 11 0.00 0.00
4:15 am 04:15 Clear 74 23.1 72 22 94 94 NNW 3 6 29.73 1007 10 16 0.00 0.00
4:35 am 04:35 Partly Cloudy 74 23.3 71 21.8 91 91 NNW 5 7 29.73 1007 10 16 0.00 0.00
4:55 am 04:55 Mostly Cloudy 74 23.2 71 21.7 91 91 N 7 11 29.73 1007 10 16 0.00 0.00
5:15 am 05:15 Cloudy 74 23.2 71 21.6 91 91 NNW 7 11 29.73 1007 10 16 0.00 0.00
5:35 am 05:35 Partly Cloudy 73 23 71 21.5 91 91 N 7 11 29.73 1007 10 16 0.00 0.00
6:00 am 06:00 Mostly Clear 73 23 70 21 89 89 VRB 7 11 29.74 1007 10 16 0.00 0.00
6:55 am 06:55 Mostly Sunny 73 23 70 21 89 89 VRB 7 11 29.74 1007 10 16 0.00 0.00
7:45 am 07:45 Mostly Sunny 77 25 72 22 83 83 VRB 7 11 29.77 1008 10 16 0.00 0.00
8:50 am 08:50 Mostly Sunny 81 27 70 21 70 70 Calm 29.78 1008 10 16 0.00 0.00
9:50 am 09:50 Mostly Sunny 82 28 70 21 66 66 VRB 3 6 29.78 1008 10 16 0.00 0.00
10:50 am 10:50 Partly Cloudy 84 29 70 21 62 62 VRB 6 9 29.77 1008 10 16 0.00 0.00
11:55 am 11:55 Partly Cloudy 84 29 70 21 62 62 VRB 6 9 29.77 1008 10 16 0.00 0.00
12:55 pm 12:55 Mostly Cloudy 88 31 72 22 59 59 NNW 9 15 29.78 1008 10 16 0.00 0.00
1:45 pm 13:45 Mostly Cloudy 90 32 70 21 52 52 NW 10 17 29.77 1008 10 16 0.00 0.00
2:55 pm 14:55 Partly Cloudy 90 32 70 21 52 52 N 8 13 29.76 1008 10 16 0.00 0.00
3:50 pm 15:50 Partly Cloudy 90 32 70 21 52 52 NNW 7 11 29.76 1008 10 16 0.00 0.00
5:50 pm 17:50 Partly Cloudy 90 32 72 22 55 55 NE 5 7 29.75 1007 10 16 0.00 0.00
6:50 pm 18:50 Partly Cloudy 88 31 72 22 59 59 NNE 3 6 29.76 1008 10 16 0.00 0.00
7:55 pm 19:55 Mostly Sunny 86 30 72 22 62 62 N 5 7 29.76 1008 10 16 0.00 0.00
8:55 pm 20:55 Mostly Clear 84 29 72 22 66 66 Calm 29.77 1008 10 16 0.00 0.00
9:50 pm 21:50 Mostly Clear 82 28 72 22 70 70 N 8 13 29.79 1009 10 16 0.00 0.00
10:15 pm 22:15 Clear 81 27.1 73 22.7 77 77 N 10 17 29.80 1009 10 16 0.00 0.00
10:35 pm 22:35 Clear 80 26.6 73 22.6 79 79 N 10 17 29.81 1009 10 16 0.00 0.00
10:55 pm 22:55 Clear 80 26.4 73 22.7 80 80 N 5 7 29.81 1009 10 16 0.00 0.00
11:15 pm 23:15 Clear 79 26.2 73 22.6 81 81 N 5 7 29.81 1009 10 16 0.00 0.00
11:35 pm 23:35 Clear 78 25.8 73 22.6 83 83 N 3 6 29.81 1009 10 16 0.00 0.00
11:55 pm 23:55 Clear 78 25.6 73 22.5 83 83 N 3 6 29.81 1009 10 16 0.00 0.00

Powered by AerisWeather